Flag for Micronesia Weather past 2 weeks in Kolonia, Pohnpei, Micronesia

Now
75 °F

Cloudy.


Feels Like: 73 °F
Forecast: 76 / 87 °F
Wind: 3 mph from South

Location: Pohnpei

Current Time: Apr 29, 2015 at 7:17:50 AM

Latest Report: Apr 29, 2015 at 6:53 AM


Visibility: 15 mi

Pressure: 29.84 "Hg

Humidity: 95%

Dew point: 73 °F

Location of KoloniaLocation

Historic Weather in Kolonia — Graph

°F

Kolonia temperature yesterday

Maximum temperature yesterday: 88 °F (at 9:53 AM)
Minimum temperature yesterday: 76 °F (at 5:53 AM)
Average temperature yesterday: 78 °F

Past Weeks' High & Low Weather Summary

 TemperatureHumidityPressure
High90 °F (Apr 23, 12:50 PM)100% (Apr 22, 2:52 AM)29.98 "Hg (Apr 22, 2:52 AM)
Low75 °F (Apr 14, 5:53 AM)65% (Apr 23, 12:50 PM)29.72 "Hg (Apr 20, 3:50 PM)
Average82 °F85%29.84 "Hg
* Reported Apr 14 5:53 AM — Apr 29 5:51 AM, Kolonia, Weather by CustomWeather, © 2015

Note: Actual official high and low records may vary slightly from our data, if they occured in-between our weather recording intervals... More about our weather records

Advertising

Kolonia weather history for previous 24 hours

 ConditionsComfort  
Time TempWeatherWind HumidityBarometerVisibility
5:51 AM
Wed, Apr 29
75 °FOvercast.3 mph97%29.83 "Hg15 mi
4:54 AM76 °FOvercast.2 mph97%29.82 "Hg15 mi
3:52 AM75 °FOvercast.3 mph97%29.80 "Hg15 mi
2:51 AM75 °FOvercast.3 mph98%29.80 "Hg15 mi
1:51 AM75 °FOvercast.3 mph98%29.83 "Hg15 mi
12:54 AM75 °FOvercast.2 mph97%29.84 "Hg15 mi
11:50 PM
Tue, Apr 28
76 °FOvercast.3 mph96%29.85 "Hg15 mi
10:50 PM76 °FOvercast.3 mph96%29.88 "Hg15 mi
9:50 PM76 °FPartly cloudy.3 mph96%29.88 "Hg15 mi
8:50 PM77 °FPartly cloudy.3 mph94%29.87 "Hg15 mi
7:50 PM78 °FPassing clouds.3 mph92%29.85 "Hg15 mi
6:55 PM78 °FMostly cloudy.3 mph91%29.82 "Hg15 mi
5:50 PM76 °FMostly cloudy.3 mph94%29.79 "Hg15 mi
4:50 PM76 °FMostly cloudy.3 mph94%29.78 "Hg15 mi
3:53 PM76 °FMostly cloudy.3 mph96%29.78 "Hg15 mi
2:54 PM76 °FSprinkles. Mostly cloudy.3 mph98%29.80 "Hg10 mi
1:53 PM76 °FRain showers. Overcast.No wind98%29.84 "Hg7 mi
12:50 PM76 °FSprinkles. Mostly cloudy.3 mph97%29.84 "Hg12 mi
11:55 AM77 °FThunderstorms. Mostly cloudy.3 mph94%29.86 "Hg10 mi
10:54 AM84 °FScattered showers. Cloudy.3 mph81%29.86 "Hg15 mi
9:53 AM88 °FCloudy.3 mph71%29.87 "Hg15 mi
8:51 AM84 °FBroken clouds.3 mph80%29.88 "Hg15 mi
7:50 AM78 °FBroken clouds.3 mph95%29.86 "Hg15 mi
Weather by CustomWeather, © 2015

See weather overviewHow to use our weather pages